FAB2018 SBPO-SBKP

Flight info

Callsign FAB2018
Flight time 1h 19m
Altitude 21000
Route ILBEK W34 EGDAX Z7 ASGUD DCT GNOME DCT
Aircraft C97/L-SDE3/C

Departure

Time 2026-04-15 09:10
Airport Juvenal Loureiro Cardoso Airport (SBPO)

Arrival

Time 2026-04-15 10:29
Airport Viracopos International Airport (SBKP)
Time Latitude Longitude Altitude Speed Heading
2026-04-15 09:04 -26.21672 -52.69478 2703 ft 0 kts 89°
2026-04-15 09:06 -26.21672 -52.69476 2703 ft 2 kts 91°
2026-04-15 09:06 -26.21749 -52.69482 2703 ft 15 kts 194°
2026-04-15 09:06 -26.21839 -52.69539 2703 ft 17 kts 230°
2026-04-15 09:07 -26.21906 -52.69633 2703 ft 16 kts 234°
2026-04-15 09:07 -26.21965 -52.69730 2703 ft 16 kts 237°
2026-04-15 09:07 -26.22025 -52.69827 2703 ft 16 kts 233°
2026-04-15 09:07 -26.22079 -52.69896 2703 ft 8 kts 230°
2026-04-15 09:08 -26.22107 -52.69943 2703 ft 2 kts 292°
2026-04-15 09:08 -26.22100 -52.69949 2703 ft 6 kts 346°
2026-04-15 09:08 -26.22081 -52.69922 2703 ft 1 kts 81°
2026-04-15 09:08 -26.22077 -52.69910 2703 ft 0 kts 58°
2026-04-15 09:09 -26.22076 -52.69908 2703 ft 4 kts 58°
2026-04-15 09:09 -26.21898 -52.69611 2703 ft 90 kts 56°
2026-04-15 09:09 -26.21466 -52.68917 2910 ft 124 kts 57°
2026-04-15 09:10 -26.20936 -52.67981 3222 ft 155 kts 59°
2026-04-15 09:10 -26.20306 -52.66930 3649 ft 174 kts 56°
2026-04-15 09:10 -26.19660 -52.65716 4052 ft 188 kts 65°
2026-04-15 09:10 -26.19183 -52.64305 4443 ft 202 kts 66°
2026-04-15 09:11 -26.18754 -52.62759 4830 ft 213 kts 69°
2026-04-15 09:11 -26.18350 -52.61157 5208 ft 219 kts 70°
2026-04-15 09:11 -26.17956 -52.59515 5583 ft 219 kts 70°
2026-04-15 09:11 -26.17567 -52.57862 5961 ft 219 kts 71°
2026-04-15 09:12 -26.17183 -52.56220 6336 ft 220 kts 71°
2026-04-15 09:12 -26.16798 -52.54579 6703 ft 222 kts 70°
2026-04-15 09:12 -26.16403 -52.52904 7081 ft 224 kts 70°
2026-04-15 09:12 -26.15999 -52.51208 7459 ft 227 kts 70°
2026-04-15 09:13 -26.15593 -52.49509 7831 ft 230 kts 70°
2026-04-15 09:13 -26.15177 -52.47766 8211 ft 234 kts 70°
2026-04-15 09:13 -26.14753 -52.45992 8590 ft 237 kts 70°
2026-04-15 09:13 -26.14330 -52.44220 8965 ft 241 kts 70°
2026-04-15 09:14 -26.13898 -52.42399 9341 ft 245 kts 71°
2026-04-15 09:14 -26.13459 -52.40543 9718 ft 249 kts 71°
2026-04-15 09:14 -26.13013 -52.38651 10098 ft 254 kts 71°
2026-04-15 09:14 -26.12567 -52.36761 10472 ft 257 kts 72°
2026-04-15 09:15 -26.12112 -52.34814 10850 ft 260 kts 72°
2026-04-15 09:15 -26.11655 -52.32860 11224 ft 263 kts 72°
2026-04-15 09:15 -26.11184 -52.30872 11602 ft 266 kts 72°
2026-04-15 09:15 -26.10709 -52.28872 11979 ft 269 kts 72°
2026-04-15 09:16 -26.10234 -52.26875 12352 ft 270 kts 72°
2026-04-15 09:16 -26.09752 -52.24845 12730 ft 272 kts 72°
2026-04-15 09:16 -26.09267 -52.22800 13108 ft 273 kts 72°
2026-04-15 09:16 -26.08942 -52.21439 13355 ft 274 kts 72°
2026-04-15 09:17 -26.08290 -52.18701 13857 ft 275 kts 72°
2026-04-15 09:17 -26.07964 -52.17331 14108 ft 275 kts 72°
2026-04-15 09:17 -26.07311 -52.14597 14608 ft 275 kts 71°
2026-04-15 09:17 -26.06977 -52.13210 14865 ft 273 kts 72°
2026-04-15 09:18 -26.06493 -52.11199 15236 ft 271 kts 72°
2026-04-15 09:18 -26.06006 -52.09176 15612 ft 268 kts 72°
2026-04-15 09:18 -26.05523 -52.07175 15967 ft 267 kts 72°
2026-04-15 09:18 -26.05027 -52.05196 16210 ft 273 kts 77°
2026-04-15 09:19 -26.04525 -52.03127 16461 ft 280 kts 77°
2026-04-15 09:19 -26.04030 -52.01001 16719 ft 285 kts 73°
2026-04-15 09:19 -26.03523 -51.98871 16971 ft 288 kts 73°
2026-04-15 09:19 -26.02999 -51.96698 17225 ft 290 kts 73°
2026-04-15 09:20 -26.02479 -51.94549 17474 ft 291 kts 73°
2026-04-15 09:20 -26.01949 -51.92368 17726 ft 292 kts 73°
2026-04-15 09:20 -26.01425 -51.90202 17974 ft 293 kts 73°
2026-04-15 09:20 -26.00895 -51.88008 18225 ft 293 kts 73°
2026-04-15 09:21 -26.00366 -51.85814 18476 ft 293 kts 73°
2026-04-15 09:21 -25.99837 -51.83619 18727 ft 292 kts 73°
2026-04-15 09:21 -25.99314 -51.81459 18974 ft 291 kts 73°
2026-04-15 09:21 -25.98787 -51.79286 19224 ft 290 kts 73°
2026-04-15 09:22 -25.98266 -51.77140 19472 ft 288 kts 73°
2026-04-15 09:22 -25.97746 -51.75002 19720 ft 286 kts 73°
2026-04-15 09:22 -25.97227 -51.72866 19970 ft 284 kts 73°
2026-04-15 09:22 -25.96718 -51.70770 20217 ft 281 kts 73°
2026-04-15 09:23 -25.96205 -51.68659 20467 ft 279 kts 73°
2026-04-15 09:23 -25.95700 -51.66589 20714 ft 277 kts 73°
2026-04-15 09:23 -25.95190 -51.64499 20875 ft 282 kts 73°
2026-04-15 09:23 -25.94672 -51.62378 20993 ft 288 kts 73°
2026-04-15 09:24 -25.94142 -51.60208 21052 ft 294 kts 73°
2026-04-15 09:24 -25.93604 -51.58009 21061 ft 300 kts 73°
2026-04-15 09:24 -25.93053 -51.55737 21061 ft 305 kts 73°
2026-04-15 09:24 -25.92504 -51.53471 21069 ft 308 kts 73°
2026-04-15 09:25 -25.91938 -51.51140 21075 ft 310 kts 73°
2026-04-15 09:25 -25.91371 -51.48817 21076 ft 312 kts 73°
2026-04-15 09:25 -25.90803 -51.46495 21076 ft 313 kts 73°
2026-04-15 09:25 -25.90234 -51.44170 21075 ft 314 kts 73°
2026-04-15 09:26 -25.89656 -51.41809 21075 ft 315 kts 73°
2026-04-15 09:26 -25.89082 -51.39469 21075 ft 315 kts 73°
2026-04-15 09:26 -25.88503 -51.37111 21076 ft 316 kts 73°
2026-04-15 09:26 -25.87927 -51.34768 21078 ft 316 kts 73°
2026-04-15 09:27 -25.87351 -51.32422 21081 ft 316 kts 73°
2026-04-15 09:27 -25.86775 -51.30082 21091 ft 316 kts 73°
2026-04-15 09:27 -25.86192 -51.27715 21096 ft 316 kts 73°
2026-04-15 09:27 -25.85610 -51.25357 21097 ft 317 kts 73°
2026-04-15 09:28 -25.85028 -51.23006 21097 ft 317 kts 73°
2026-04-15 09:28 -25.84445 -51.20645 21097 ft 317 kts 73°
2026-04-15 09:28 -25.83860 -51.18278 21091 ft 317 kts 73°
2026-04-15 09:28 -25.83273 -51.15906 21081 ft 317 kts 73°
2026-04-15 09:29 -25.82692 -51.13557 21077 ft 317 kts 73°
2026-04-15 09:29 -25.82107 -51.11198 21076 ft 317 kts 73°
2026-04-15 09:29 -25.81526 -51.08853 21076 ft 317 kts 73°
2026-04-15 09:29 -25.80936 -51.06483 21086 ft 317 kts 73°
2026-04-15 09:30 -25.80352 -51.04139 21091 ft 317 kts 73°
2026-04-15 09:30 -25.79766 -51.01790 21094 ft 317 kts 73°
2026-04-15 09:30 -25.79178 -50.99428 21095 ft 317 kts 73°
2026-04-15 09:30 -25.78588 -50.97061 21096 ft 317 kts 73°
2026-04-15 09:31 -25.78003 -50.94709 21096 ft 317 kts 73°
2026-04-15 09:31 -25.77417 -50.92352 21096 ft 317 kts 73°
2026-04-15 09:31 -25.76829 -50.89991 21096 ft 317 kts 73°
2026-04-15 09:31 -25.76236 -50.87616 21096 ft 317 kts 73°
2026-04-15 09:32 -25.75649 -50.85269 21096 ft 317 kts 73°
2026-04-15 09:32 -25.75061 -50.82922 21098 ft 317 kts 73°
2026-04-15 09:32 -25.74470 -50.80556 21098 ft 317 kts 73°
2026-04-15 09:32 -25.73878 -50.78190 21099 ft 317 kts 73°
2026-04-15 09:33 -25.73290 -50.75837 21099 ft 317 kts 73°
2026-04-15 09:33 -25.72695 -50.73467 21099 ft 317 kts 73°
2026-04-15 09:33 -25.72111 -50.71128 21099 ft 317 kts 73°
2026-04-15 09:33 -25.71521 -50.68765 21099 ft 317 kts 73°
2026-04-15 09:34 -25.70932 -50.66409 21099 ft 317 kts 73°
2026-04-15 09:34 -25.70336 -50.64026 21099 ft 317 kts 73°
2026-04-15 09:34 -25.69751 -50.61691 21099 ft 317 kts 73°
2026-04-15 09:34 -25.69156 -50.59318 21099 ft 317 kts 73°
2026-04-15 09:35 -25.68564 -50.56962 21100 ft 317 kts 73°
2026-04-15 09:35 -25.67974 -50.54619 21100 ft 317 kts 73°
2026-04-15 09:35 -25.67379 -50.52258 21100 ft 317 kts 73°
2026-04-15 09:35 -25.66784 -50.49899 21099 ft 317 kts 73°
2026-04-15 09:36 -25.66186 -50.47530 21099 ft 317 kts 73°
2026-04-15 09:36 -25.65591 -50.45175 21099 ft 318 kts 73°
2026-04-15 09:36 -25.65002 -50.42845 21099 ft 318 kts 73°
2026-04-15 09:36 -25.64404 -50.40482 21099 ft 317 kts 73°
2026-04-15 09:37 -25.63808 -50.38145 21151 ft 315 kts 73°
2026-04-15 09:37 -25.63209 -50.35787 21166 ft 315 kts 73°
2026-04-15 09:37 -25.62625 -50.33487 21169 ft 314 kts 73°
2026-04-15 09:37 -25.62029 -50.31137 21170 ft 314 kts 73°
2026-04-15 09:38 -25.61436 -50.28803 21170 ft 314 kts 73°
2026-04-15 09:38 -25.60850 -50.26496 21170 ft 314 kts 73°
2026-04-15 09:38 -25.60255 -50.24156 21170 ft 314 kts 73°
2026-04-15 09:38 -25.59668 -50.21853 21170 ft 314 kts 73°
2026-04-15 09:39 -25.59066 -50.19499 21170 ft 314 kts 73°
2026-04-15 09:39 -25.58466 -50.17166 21170 ft 314 kts 73°
2026-04-15 09:39 -25.57867 -50.14833 21170 ft 314 kts 73°
2026-04-15 09:39 -25.57266 -50.12493 21170 ft 314 kts 73°
2026-04-15 09:40 -25.56671 -50.10172 21170 ft 314 kts 73°
2026-04-15 09:40 -25.56078 -50.07855 21170 ft 314 kts 73°
2026-04-15 09:40 -25.55480 -50.05520 21170 ft 314 kts 73°
2026-04-15 09:40 -25.54885 -50.03195 21170 ft 314 kts 73°
2026-04-15 09:41 -25.54286 -50.00863 21170 ft 314 kts 73°
2026-04-15 09:41 -25.53687 -49.98526 21170 ft 314 kts 73°
2026-04-15 09:41 -25.53087 -49.96187 21170 ft 314 kts 73°
2026-04-15 09:41 -25.52498 -49.93884 21170 ft 314 kts 73°
2026-04-15 09:42 -25.51899 -49.91543 21170 ft 314 kts 73°
2026-04-15 09:42 -25.51298 -49.89200 21170 ft 314 kts 73°
2026-04-15 09:42 -25.50704 -49.86888 21170 ft 314 kts 73°
2026-04-15 09:42 -25.50102 -49.84552 21170 ft 314 kts 73°
2026-04-15 09:43 -25.49506 -49.82239 21170 ft 314 kts 73°
2026-04-15 09:43 -25.48902 -49.79896 21170 ft 314 kts 73°
2026-04-15 09:43 -25.48304 -49.77574 21170 ft 315 kts 73°
2026-04-15 09:43 -25.47707 -49.75263 21170 ft 315 kts 73°
2026-04-15 09:44 -25.47101 -49.72914 21170 ft 315 kts 73°
2026-04-15 09:44 -25.46500 -49.70591 21170 ft 315 kts 73°
2026-04-15 09:44 -25.45901 -49.68282 21170 ft 315 kts 73°
2026-04-15 09:44 -25.45297 -49.65954 21170 ft 315 kts 73°
2026-04-15 09:45 -25.44690 -49.63613 21170 ft 315 kts 73°
2026-04-15 09:45 -25.44090 -49.61302 21170 ft 315 kts 73°
2026-04-15 09:45 -25.43482 -49.58958 21170 ft 315 kts 73°
2026-04-15 09:45 -25.42883 -49.56656 21170 ft 315 kts 73°
2026-04-15 09:46 -25.42274 -49.54318 21170 ft 315 kts 73°
2026-04-15 09:46 -25.41673 -49.52010 21170 ft 315 kts 73°
2026-04-15 09:46 -25.41064 -49.49668 21170 ft 315 kts 73°
2026-04-15 09:46 -25.40463 -49.47364 21170 ft 315 kts 73°
2026-04-15 09:47 -25.39855 -49.45032 21170 ft 315 kts 73°
2026-04-15 09:47 -25.39246 -49.42703 21170 ft 315 kts 73°
2026-04-15 09:47 -25.38632 -49.40359 21170 ft 315 kts 73°
2026-04-15 09:47 -25.38020 -49.38027 21170 ft 315 kts 73°
2026-04-15 09:48 -25.37369 -49.35753 21168 ft 314 kts 68°
2026-04-15 09:48 -25.36356 -49.33600 21170 ft 314 kts 57°
2026-04-15 09:48 -25.35072 -49.31654 21172 ft 313 kts 50°
2026-04-15 09:48 -25.33623 -49.29874 21171 ft 313 kts 45°
2026-04-15 09:49 -25.32054 -49.28194 21171 ft 313 kts 42°
2026-04-15 09:49 -25.30421 -49.26592 21171 ft 313 kts 40°
2026-04-15 09:49 -25.28775 -49.25065 21170 ft 313 kts 39°
2026-04-15 09:49 -25.27085 -49.23545 21170 ft 313 kts 38°
2026-04-15 09:50 -25.25382 -49.22039 21170 ft 313 kts 38°
2026-04-15 09:50 -25.23691 -49.20557 21170 ft 313 kts 38°
2026-04-15 09:50 -25.21978 -49.19060 21170 ft 313 kts 38°
2026-04-15 09:50 -25.20266 -49.17550 21170 ft 313 kts 38°
2026-04-15 09:51 -25.18591 -49.16061 21170 ft 313 kts 38°
2026-04-15 09:51 -25.16891 -49.14548 21170 ft 313 kts 38°
2026-04-15 09:51 -25.15210 -49.13049 21170 ft 313 kts 38°
2026-04-15 09:51 -25.13517 -49.11541 21170 ft 313 kts 38°
2026-04-15 09:52 -25.11814 -49.10024 21170 ft 313 kts 38°
2026-04-15 09:52 -25.10135 -49.08532 21170 ft 313 kts 38°
2026-04-15 09:52 -25.08430 -49.07018 21170 ft 313 kts 38°
2026-04-15 09:52 -25.06746 -49.05525 21170 ft 313 kts 38°
2026-04-15 09:53 -25.05033 -49.04007 21170 ft 313 kts 38°
2026-04-15 09:53 -25.03348 -49.02515 21170 ft 313 kts 38°
2026-04-15 09:53 -25.01639 -49.01003 21170 ft 313 kts 38°
2026-04-15 09:53 -24.99937 -48.99500 21170 ft 313 kts 38°
2026-04-15 09:54 -24.98248 -48.98008 21170 ft 313 kts 38°
2026-04-15 09:54 -24.96576 -48.96501 21170 ft 313 kts 39°
2026-04-15 09:54 -24.94901 -48.94962 21170 ft 313 kts 39°
2026-04-15 09:54 -24.93225 -48.93404 21170 ft 313 kts 40°
2026-04-15 09:55 -24.91577 -48.91862 21170 ft 313 kts 40°
2026-04-15 09:55 -24.89913 -48.90301 21170 ft 313 kts 40°
2026-04-15 09:55 -24.88252 -48.88740 21170 ft 313 kts 40°
2026-04-15 09:55 -24.86613 -48.87198 21170 ft 313 kts 40°
2026-04-15 09:56 -24.84945 -48.85629 21170 ft 313 kts 40°
2026-04-15 09:56 -24.83301 -48.84084 21170 ft 313 kts 40°
2026-04-15 09:56 -24.79999 -48.80979 21170 ft 313 kts 40°
2026-04-15 09:57 -24.78341 -48.79421 21170 ft 313 kts 40°
2026-04-15 09:57 -24.76677 -48.77858 21170 ft 313 kts 40°
2026-04-15 09:57 -24.75576 -48.76824 21170 ft 313 kts 40°
2026-04-15 09:57 -24.73357 -48.74742 21170 ft 314 kts 40°
2026-04-15 09:58 -24.71704 -48.73191 21170 ft 314 kts 40°
2026-04-15 09:58 -24.70031 -48.71622 21170 ft 315 kts 40°
2026-04-15 09:58 -24.68379 -48.70073 21170 ft 315 kts 40°
2026-04-15 09:58 -24.66704 -48.68503 21170 ft 315 kts 40°
2026-04-15 09:59 -24.65046 -48.66950 21170 ft 315 kts 40°
2026-04-15 09:59 -24.63356 -48.65368 21170 ft 315 kts 40°
2026-04-15 09:59 -24.61699 -48.63818 21170 ft 315 kts 40°
2026-04-15 09:59 -24.60015 -48.62248 21170 ft 316 kts 40°
2026-04-15 10:00 -24.58345 -48.60693 21170 ft 316 kts 40°
2026-04-15 10:00 -24.56662 -48.59126 21170 ft 316 kts 40°
2026-04-15 10:00 -24.54997 -48.57575 21170 ft 316 kts 40°
2026-04-15 10:00 -24.53884 -48.56536 21170 ft 316 kts 40°
2026-04-15 10:01 -24.51652 -48.54456 21170 ft 316 kts 40°
2026-04-15 10:01 -24.50546 -48.53425 21170 ft 316 kts 40°
2026-04-15 10:01 -24.48865 -48.51855 21170 ft 316 kts 40°
2026-04-15 10:01 -24.46623 -48.49762 21170 ft 316 kts 40°
2026-04-15 10:02 -24.45524 -48.48735 21170 ft 316 kts 40°
2026-04-15 10:02 -24.43836 -48.47161 21170 ft 316 kts 40°
2026-04-15 10:02 -24.42177 -48.45613 21170 ft 316 kts 40°
2026-04-15 10:02 -24.40492 -48.44042 21170 ft 316 kts 40°
2026-04-15 10:03 -24.38834 -48.42496 21170 ft 316 kts 40°
2026-04-15 10:03 -24.37157 -48.40935 21170 ft 316 kts 40°
2026-04-15 10:03 -24.35492 -48.39385 21170 ft 316 kts 40°
2026-04-15 10:03 -24.33804 -48.37814 21170 ft 316 kts 40°
2026-04-15 10:04 -24.32137 -48.36263 21170 ft 316 kts 40°
2026-04-15 10:04 -24.30451 -48.34696 21170 ft 316 kts 40°
2026-04-15 10:04 -24.28786 -48.33149 21170 ft 316 kts 40°
2026-04-15 10:04 -24.27095 -48.31579 21170 ft 316 kts 40°
2026-04-15 10:05 -24.25424 -48.30027 21170 ft 316 kts 40°
2026-04-15 10:05 -24.23755 -48.28478 21167 ft 316 kts 40°
2026-04-15 10:05 -24.22070 -48.26915 21164 ft 316 kts 40°
2026-04-15 10:05 -24.20405 -48.25371 21162 ft 316 kts 40°
2026-04-15 10:06 -24.18716 -48.23805 21160 ft 316 kts 40°
2026-04-15 10:06 -24.17048 -48.22260 21158 ft 317 kts 40°
2026-04-15 10:06 -24.15340 -48.20677 21155 ft 317 kts 40°
2026-04-15 10:06 -24.13671 -48.19133 21153 ft 317 kts 40°
2026-04-15 10:07 -24.11979 -48.17566 21153 ft 317 kts 40°
2026-04-15 10:07 -24.10312 -48.16024 21151 ft 317 kts 40°
2026-04-15 10:07 -24.08623 -48.14463 21148 ft 317 kts 40°
2026-04-15 10:07 -24.06930 -48.12900 21144 ft 317 kts 40°
2026-04-15 10:08 -24.05262 -48.11361 21141 ft 316 kts 40°
2026-04-15 10:08 -24.03577 -48.09799 21140 ft 316 kts 40°
2026-04-15 10:08 -24.01893 -48.08232 21140 ft 316 kts 41°
2026-04-15 10:08 -24.00237 -48.06689 21140 ft 316 kts 41°
2026-04-15 10:09 -23.98555 -48.05121 20973 ft 321 kts 41°
2026-04-15 10:09 -23.96836 -48.03516 20673 ft 325 kts 41°
2026-04-15 10:09 -23.95136 -48.01931 20418 ft 322 kts 41°
2026-04-15 10:09 -23.93430 -48.00341 20167 ft 321 kts 41°
2026-04-15 10:10 -23.91719 -47.98747 19915 ft 320 kts 41°
2026-04-15 10:10 -23.90038 -47.97182 19667 ft 320 kts 40°
2026-04-15 10:10 -23.88350 -47.95613 19418 ft 320 kts 40°
2026-04-15 10:10 -23.86647 -47.94031 19167 ft 320 kts 40°
2026-04-15 10:11 -23.84933 -47.92439 18915 ft 321 kts 40°
2026-04-15 10:11 -23.83255 -47.90882 18669 ft 321 kts 41°
2026-04-15 10:11 -23.81548 -47.89296 18431 ft 321 kts 41°
2026-04-15 10:11 -23.79833 -47.87705 18225 ft 321 kts 41°
2026-04-15 10:12 -23.78140 -47.86135 18026 ft 321 kts 41°
2026-04-15 10:12 -23.76449 -47.84568 17827 ft 321 kts 41°
2026-04-15 10:12 -23.74745 -47.82988 17627 ft 321 kts 41°
2026-04-15 10:12 -23.73040 -47.81407 17426 ft 320 kts 41°
2026-04-15 10:13 -23.71328 -47.79820 17224 ft 320 kts 41°
2026-04-15 10:13 -23.69630 -47.78247 17015 ft 320 kts 41°
2026-04-15 10:13 -23.67952 -47.76693 16772 ft 319 kts 41°
2026-04-15 10:13 -23.66253 -47.75122 16522 ft 319 kts 41°
2026-04-15 10:14 -23.64553 -47.73553 16270 ft 318 kts 41°
2026-04-15 10:14 -23.62861 -47.71993 16020 ft 318 kts 41°
2026-04-15 10:14 -23.61188 -47.70450 15772 ft 317 kts 41°
2026-04-15 10:14 -23.59505 -47.68895 15521 ft 316 kts 41°
2026-04-15 10:15 -23.57829 -47.67346 15270 ft 315 kts 41°
2026-04-15 10:15 -23.56157 -47.65801 15020 ft 314 kts 41°
2026-04-15 10:15 -23.54507 -47.64277 14773 ft 314 kts 41°
2026-04-15 10:15 -23.52832 -47.62736 14521 ft 314 kts 41°
2026-04-15 10:16 -23.51159 -47.61200 14270 ft 313 kts 41°
2026-04-15 10:16 -23.49509 -47.59683 14022 ft 312 kts 41°
2026-04-15 10:16 -23.47842 -47.58153 13771 ft 312 kts 41°
2026-04-15 10:16 -23.46177 -47.56623 13519 ft 312 kts 41°
2026-04-15 10:17 -23.44493 -47.55178 13271 ft 311 kts 36°
2026-04-15 10:17 -23.42652 -47.53927 13022 ft 311 kts 31°
2026-04-15 10:17 -23.40726 -47.52834 12771 ft 311 kts 27°
2026-04-15 10:17 -23.38782 -47.51864 12524 ft 310 kts 25°
2026-04-15 10:18 -23.36774 -47.50949 12272 ft 309 kts 23°
2026-04-15 10:18 -23.34787 -47.50099 12023 ft 308 kts 22°
2026-04-15 10:18 -23.32774 -47.49271 11772 ft 307 kts 22°
2026-04-15 10:18 -23.30784 -47.48471 11523 ft 306 kts 21°
2026-04-15 10:19 -23.28788 -47.47681 11272 ft 304 kts 21°
2026-04-15 10:19 -23.26796 -47.46900 11021 ft 303 kts 21°
2026-04-15 10:19 -23.24830 -47.46134 10773 ft 302 kts 21°
2026-04-15 10:19 -23.22852 -47.45355 10462 ft 301 kts 21°
2026-04-15 10:20 -23.20922 -47.44592 10088 ft 292 kts 21°
2026-04-15 10:20 -23.19035 -47.43844 9706 ft 286 kts 18°
2026-04-15 10:20 -23.17153 -47.43115 9328 ft 285 kts 20°
2026-04-15 10:20 -23.15296 -47.42405 8956 ft 284 kts 20°
2026-04-15 10:21 -23.13431 -47.41692 8580 ft 282 kts 21°
2026-04-15 10:21 -23.11578 -47.40981 8203 ft 279 kts 21°
2026-04-15 10:21 -23.09777 -47.40289 7832 ft 276 kts 21°
2026-04-15 10:21 -23.07966 -47.39591 7454 ft 272 kts 22°
2026-04-15 10:22 -23.06200 -47.38912 7075 ft 262 kts 22°
2026-04-15 10:22 -23.04533 -47.38269 6701 ft 252 kts 21°
2026-04-15 10:22 -23.02911 -47.37645 6340 ft 242 kts 21°
2026-04-15 10:22 -23.01363 -47.37052 6087 ft 229 kts 21°
2026-04-15 10:23 -22.99903 -47.36497 5834 ft 220 kts 21°
2026-04-15 10:23 -22.98508 -47.35876 5579 ft 212 kts 28°
2026-04-15 10:23 -22.97206 -47.35094 5330 ft 216 kts 34°
2026-04-15 10:23 -22.95947 -47.34195 5087 ft 220 kts 38°
2026-04-15 10:24 -22.94718 -47.33231 4835 ft 214 kts 39°
2026-04-15 10:24 -22.93544 -47.32267 4593 ft 205 kts 40°
2026-04-15 10:24 -22.92459 -47.31360 4452 ft 193 kts 41°
2026-04-15 10:24 -22.91414 -47.30483 4443 ft 190 kts 41°
2026-04-15 10:25 -22.90402 -47.29492 4305 ft 199 kts 56°
2026-04-15 10:25 -22.89959 -47.28167 4386 ft 183 kts 88°
2026-04-15 10:25 -22.90255 -47.26875 4395 ft 176 kts 121°
2026-04-15 10:25 -22.91154 -47.25990 4415 ft 177 kts 147°
2026-04-15 10:26 -22.92246 -47.25335 4408 ft 181 kts 149°
2026-04-15 10:26 -22.93282 -47.24555 4358 ft 179 kts 139°
2026-04-15 10:26 -22.94058 -47.23600 4160 ft 163 kts 124°
2026-04-15 10:26 -22.94617 -47.22516 3926 ft 165 kts 116°
2026-04-15 10:27 -22.95121 -47.21411 3717 ft 166 kts 117°
2026-04-15 10:27 -22.95717 -47.20336 3498 ft 165 kts 124°
2026-04-15 10:27 -22.96420 -47.19357 3273 ft 163 kts 130°
2026-04-15 10:27 -22.97151 -47.18457 3055 ft 157 kts 131°
2026-04-15 10:28 -22.97810 -47.17607 2866 ft 134 kts 128°
2026-04-15 10:28 -22.98352 -47.16834 2642 ft 125 kts 126°
2026-04-15 10:28 -22.98878 -47.16071 2511 ft 125 kts 127°
2026-04-15 10:28 -22.99401 -47.15343 2366 ft 120 kts 128°
2026-04-15 10:29 -22.99902 -47.14645 2207 ft 113 kts 128°
2026-04-15 10:29 -23.00292 -47.14091 2176 ft 65 kts 127°
2026-04-15 10:29 -23.00424 -47.13917 2176 ft 19 kts 133°
2026-04-15 10:29 -23.00487 -47.13847 2176 ft 14 kts 156°
2026-04-15 10:30 -23.00593 -47.13820 2176 ft 12 kts 174°
2026-04-15 10:30 -23.00702 -47.13797 2176 ft 15 kts 167°
2026-04-15 10:30 -23.00801 -47.13801 2176 ft 18 kts 203°
2026-04-15 10:30 -23.00891 -47.13858 2176 ft 18 kts 214°
2026-04-15 10:31 -23.00978 -47.13926 2176 ft 15 kts 217°
2026-04-15 10:31 -23.01041 -47.14016 2176 ft 15 kts 258°
2026-04-15 10:31 -23.01046 -47.14045 2176 ft 0 kts 262°